Location: Baia Mare
(47.6567°N, 23.5850°E)
Time: 13:22:46
(UTC+02:00)

ISS - Pass Details

Date: 07 December 2018
Orbit: 401 x 408 km, 51.6° (Epoch: 16 December)

Event Time Altitude Azimuth Distance (km) Brightness Sun altitude
Rises 17:52:56 0° 290° (WNW) 2,319 0.9 -12.7°
Reaches altitude 10° 17:55:04 10° 296° (WNW) 1,458 -0.4 -13.0°
Maximum altitude 17:58:15 48° 12° (NNE) 538 -3.5 -13.5°
Enters shadow 17:59:38 28° 72° (ENE) 799 -3.0 -13.7°
